Regional Weather Roundup
Issued by NWS

Home | Current Version | Previous Version | Graphics & Text | Print | Product List | Glossary On
Versions: 1 2 3 4 5 6 7 8 9 10 11 12 13 14 15 16 17 18 19 20 21 22 23 24 25 26 27 28 29 30 31 32 33 34 35 36 37 38 39 40 41 42 43 44 45 46 47 48 49 50
000
ASUS43 KLSX 210707
RWRMO

WEATHER SUMMARY FOR MISSOURI
NATIONAL WEATHER SERVICE SPRINGFIELD MO
100 AM CST FRI NOV 21 2014

NOTE: "FAIR" INDICATES FEW OR NO CLOUDS BELOW 12,000 FEET WITH NO
       SIGNIFICANT WEATHER AND/OR OBSTRUCTIONS TO VISIBILITY.
       CURRENT SKY AND/OR WEATHER CONDITIONS ARE NOT AVAILABLE FOR
       CHILLICOTHE AND FARMINGTON.

MOZ001>031-035>038-043-044-053-054-210800-
...NORTHERN AND WESTERN MISSOURI...

CITY           SKY/WX    TMP DP  RH WIND       PRES   REMARKS
KANSAS CTY INT CLEAR     25  17  72 E8        30.26F WCI  16
KANSAS C DTWN  CLEAR     27  17  66 E6        30.28S WCI  20
LEE`S SUMMIT   CLEAR     25  16  68 E9        30.27S WCI  15
ST JOSEPH      CLEAR     22  16  78 E5        30.30S WCI  16
CHILLICOTHE      N/A     18  14  84 CALM      30.33S
KIRKSVILLE     PTCLDY    18  11  74 E5        30.33S WCI  11

$$
MOZ066>068-077>081-088>096-101>105-210800-
...SOUTHWEST MISSOURI...

CITY           SKY/WX    TMP DP  RH WIND       PRES   REMARKS
SPRINGFIELD    PTCLDY    36  23  59 SE8       30.21S WCI  30
JOPLIN         CLEAR     34  24  67 E6        30.19S WCI  29

$$
MOZ032>034-039>042-045>050-055>058-069>072-210800-
...CENTRAL MISSOURI...

CITY           SKY/WX    TMP DP  RH WIND       PRES   REMARKS
COLUMBIA       CLEAR     24  17  74 NE8       30.31S WCI  15
JEFFERSON CITY CLEAR     21  16  81 CALM      30.33S
ROLLA          CLEAR     26  18  71 E10       30.28S WCI  16
SEDALIA        CLEAR     26  17  68 E6        30.29S WCI  19
WHITEMAN AFB   CLEAR     25  17  72 E3        30.27F
WARRENSBURG    CLEAR     25  18  74 NE3       30.28S
OSAGE BEACH    CLEAR     28  18  64 E6        30.29S WCI  22

$$
MOZ051-052-059>065-210800-
...EAST CENTRAL MISSOURI...

CITY           SKY/WX    TMP DP  RH WIND       PRES   REMARKS
ST LOUIS INTL  CLEAR     24  18  77 CALM      30.37R
SPIRIT OF STL  CLEAR     19  16  88 CALM      30.36R
ST CHARLES     CLEAR     22  15  75 E3        30.37R

$$
MOZ072>076-082>087-097>100-106>115-210800-
...SOUTH CENTRAL AND SOUTHEAST MISSOURI...

CITY           SKY/WX    TMP DP  RH WIND       PRES   REMARKS
CAPE GIRARDEAU CLOUDY    30  26  85 NE5       30.35R WCI  25
FARMINGTON     CLEAR     25  18  74 CALM      30.33S
POPLAR BLUFF   CLOUDY    37  27  67 NE8       30.31R
WEST PLAINS    CLEAR     33  21  61 NE3       30.26S

$$



USA.gov is the U.S. government's official web portal to all federal, state and local government web resources and services.